#timestamp,LO_Frequency,Hit,StdDev 
1590354015.4,286047002.0,P
1590354035.3,286047000.1,N
1590354055.1,286047000.4,N
1590354075.9,286046999.8,N
1590354095.7,286047001.2,N
1590354115.5,286047001.1,N
1590354135.4,286046999.7,N
1590354155.2,286047000.0,N
1590354175.0,286046998.9,N
1590354175.9,286046998.9,N
1590354195.8,286046998.3,N
1590354215.6,286046998.9,N
1590354235.5,286046996.8,N
1590354255.3,286046998.9,N
1590354275.1,286047000.7,N
1590354295.9,286047002.8,N
1590354315.7,286047000.7,N
1590354335.6,286047001.2,N
1590354355.4,286046998.3,N
1590354375.2,286047001.2,N
1590354395.1,286046998.3,N
1590354396.0,286046998.3,N
1590354415.8,286046998.5,N
1590354435.6,286046998.2,N
1590354455.5,286046998.6,N
1590354475.3,286047002.7,N
1590354495.2,286046999.7,N
1590354515.9,286047002.3,N
1590354535.7,286047002.5,N
1590354555.6,286047001.4,N
1590354575.4,286047000.4,N
1590354595.2,286047000.8,N
1590354615.1,286046998.8,N
1590354616.0,286046998.8,N
1590354635.8,286046998.8,N
1590354655.7,286047000.0,N
1590354675.5,286047000.2,N
1590354695.3,286047000.1,N
1590354715.2,286047000.9,N
1590354735.0,286047000.9,N
1590354735.9,286047000.9,N
1590354755.8,286047002.5,N
1590354775.6,286047002.3,N
1590354795.4,286047001.3,N
1590354815.3,286047002.3,N
1590354835.1,286047000.1,N
1590354855.9,286047000.4,N
1590354875.7,286046998.1,N
1590354895.5,286047000.9,N
1590354915.4,286047002.3,N
1590354935.2,286047000.2,N
1590354955.0,286047002.0,N
1590354955.9,286047002.0,N
1590354975.8,286047002.2,N
1590354995.6,286047000.1,N
1590355015.5,286046998.2,N
1590355035.3,286047002.6,N
1590355055.1,286046998.2,N
1590355075.9,286046996.8,N
1590355095.7,286046999.4,N
1590355115.6,286046998.9,N
1590355135.4,286047000.6,N
1590355155.2,286046999.9,N
1590355175.1,286047002.1,N
1590355176.0,286047002.1,N
1590355195.8,286047000.0,N
1590355215.7,286047000.2,N
1590355235.5,286047002.8,N
1590355255.3,286047002.0,N
1590355275.2,286046999.7,N
1590355295.0,286047000.1,N
1590355295.9,286047000.1,N
1590355315.8,286047001.1,N
1590355335.6,286047000.2,N
1590355355.4,286047001.2,N
1590355375.3,286046998.6,N
1590355395.1,286047002.5,N
1590355415.9,286047001.3,N
1590355435.7,286047001.5,N
1590355455.5,286047001.0,N
1590355475.4,286047001.8,N
1590355495.2,286046999.7,N
1590355515.0,286046999.7,N
1590355515.9,286046999.7,N
1590355535.8,286047002.7,N
1590355555.6,286047003.5,N
1590355575.5,286047001.7,N
1590355595.3,286047002.2,N
1590355615.1,286047003.1,N
1590355635.9,286047001.6,N
1590355655.7,286047003.7,N
1590355675.4,286047003.5,N
1590355695.2,286047001.7,N
1590355715.0,286047002.4,N
1590355715.9,286047002.4,N
1590355735.8,286047004.0,N
1590355755.6,286047003.1,N
1590355775.4,286047002.0,N
1590355795.3,286047000.1,N
1590355815.1,286046999.9,N
1590355835.9,286046999.3,N
1590355855.7,286047000.4,N
1590355875.5,286046998.3,N
1590355895.4,286047000.1,N
1590355915.2,286047000.1,N
1590355935.1,286047001.2,N
1590355936.0,286047001.2,N
1590355955.8,286046998.9,N
1590355975.6,286047000.4,N
1590355995.5,286047000.7,N
1590356015.3,286046998.2,N
1590356035.1,286047000.5,N
1590356055.9,286046999.2,N
1590356075.7,286046997.5,N
1590356095.6,286046997.9,N
1590356115.4,286046993.8,Y
1590356135.2,286046994.1,P
1590356155.1,286046993.6,N
1590356156.0,286046993.6,N
1590356175.8,286046994.4,N
1590356195.7,286046991.7,N
1590356215.5,286046992.9,N
1590356235.3,286046994.8,N
1590356255.2,286046994.3,N
1590356275.0,286046994.0,N
1590356275.9,286046994.0,N
1590356295.8,286046994.1,N
1590356315.6,286046993.4,Y
1590356335.4,286046998.1,P
1590356355.3,286046998.2,N
1590356375.1,286046999.1,N
1590356395.8,286046999.2,N
1590356415.7,286046997.0,N
1590356435.5,286046998.8,N
1590356455.4,286046999.0,N
1590356475.2,286046998.2,N
1590356495.0,286047000.6,N
1590356496.0,286047000.6,N
1590356515.8,286046999.4,N
1590356535.6,286047001.9,N
1590356555.5,286047003.0,N
1590356575.3,286046999.8,N
1590356595.1,286046998.5,N
1590356615.9,286046998.6,N
1590356635.7,286047001.7,N
1590356655.6,286047000.2,N
1590356675.4,286046998.2,N
1590356695.2,286046999.3,N
1590356715.1,286046997.2,N
1590356716.0,286046997.2,N
1590356735.8,286046997.7,N
1590356755.7,286046999.1,N
1590356775.5,286047002.2,N
1590356795.3,286047002.5,N
1590356815.2,286047002.5,N
1590356835.0,286046999.7,N
1590356835.9,286046999.7,N
1590356855.8,286047001.5,N
1590356875.6,286047000.4,N
1590356895.4,286047000.7,N
1590356915.3,286047002.4,N
1590356935.1,286047001.1,N
1590356955.8,286047001.1,N
1590356975.7,286046998.4,N
1590356995.5,286047004.2,N
1590357015.4,286047003.9,N
1590357035.2,286047001.4,N
1590357055.0,286047001.6,N
1590357055.9,286047001.6,N
1590357075.8,286047003.1,N
1590357095.6,286047004.1,N
1590357115.5,286047001.6,N
1590357135.3,286047004.3,N
1590357155.1,286047004.0,N
1590357175.9,286047001.8,N
1590357195.7,286047001.5,N
1590357215.5,286047004.0,N
1590357235.4,286047001.3,N
1590357255.2,286047002.6,N
1590357275.1,286047002.3,N
1590357276.0,286047002.3,N
1590357295.8,286047002.6,N
1590357315.6,286047000.7,N
1590357335.5,286047000.2,N
1590357355.3,286047001.0,N
1590357375.1,286046999.8,N
1590357395.9,286047002.2,N
1590357415.7,286047001.6,N
1590357435.6,286047002.5,N
1590357455.4,286047001.3,N
1590357475.2,286047001.8,N
1590357495.1,286047003.4,N
1590357496.0,286047003.4,N
1590357515.8,286047002.9,N
1590357535.7,286047004.2,Y
1590357555.5,286047001.3,P
1590357575.3,286047005.0,P
1590357595.2,286047003.0,N
